When you browse on this site, cookies collect data to enhance your experience and personalize the content and advertising you see.
Visit our Privacy Policy to learn more. By continuing to use the site, you agree to this use of cookies and data.
  • In Switzerland
  • List of Countries
  • For 7 days
  • Water Temperature
  • Weather Map
  • Weather Widgets
  • user-avatar
    Login

    Hourly Weather Kurcy

    Today, 21 August, Wednesday

    Time Temperature Precipitation Wind Pressure Humidity
    00:00 +19°C° 0 mm 0 mps 753 mmHg 75%
    01:00 +18°C° 0 mm 0 mps 753 mmHg 76%
    02:00 +18°C° 0 mm 0 mps 753 mmHg 77%
    03:00 +18°C° 0 mm 0 mps 754 mmHg 79%
    04:00 +20°C° 0 mm 1 mps 754 mmHg 80%
    05:00 +20°C° 0 mm 1 mps 754 mmHg 81%
    06:00 +20°C° 0 mm 1 mps 754 mmHg 81%
    07:00 +21°C° 0 mm 1 mps 754 mmHg 77%
    08:00 +23°C° 0 mm 1 mps 754 mmHg 73%
    09:00 +24°C° 0 mm 1 mps 754 mmHg 68%
    10:00 +25°C° 0 mm 1 mps 754 mmHg 65%
    11:00 +26°C° 0 mm 1 mps 754 mmHg 62%
    12:00 +27°C° 0 mm 1 mps 754 mmHg 59%
    13:00 +28°C° 0 mm 1 mps 754 mmHg 57%
    14:00 +28°C° 0 mm 1 mps 754 mmHg 56%
    15:00 +29°C° 0 mm 1 mps 753 mmHg 54%
    16:00 +28°C° 0 mm 1 mps 753 mmHg 58%
    17:00 +28°C° 0 mm 1 mps 753 mmHg 61%
    18:00 +27°C° 0 mm 1 mps 753 mmHg 65%
    19:00 +26°C° 0 mm 1 mps 753 mmHg 68%
    20:00 +25°C° 0 mm 1 mps 752 mmHg 72%
    21:00 +23°C° 0 mm 2 mps 752 mmHg 76%
    22:00 +23°C° 0 mm 2 mps 752 mmHg 78%
    23:00 +21°C° 0 mm 2 mps 752 mmHg 80%

    Tomorrow, 22 August, Thursday

    Time Temperature Precipitation Wind Pressure Humidity
    00:00 +22°C° 0 mm 1 mps 752 mmHg 82%
    01:00 +21°C° 0 mm 1 mps 752 mmHg 82%
    02:00 +21°C° 0 mm 1 mps 752 mmHg 83%
    03:00 +21°C° 0 mm 1 mps 752 mmHg 84%
    04:00 +20°C° 0 mm 1 mps 752 mmHg 85%
    05:00 +20°C° 0 mm 1 mps 752 mmHg 86%
    06:00 +20°C° 0 mm 1 mps 752 mmHg 87%
    07:00 +22°C° 0 mm 1 mps 752 mmHg 81%
    08:00 +23°C° 0 mm 1 mps 752 mmHg 76%
    09:00 +25°C° 0 mm 1 mps 752 mmHg 70%
    10:00 +26°C° 0 mm 1 mps 752 mmHg 66%
    11:00 +27°C° 0 mm 1 mps 751 mmHg 62%
    12:00 +28°C° 0 mm 1 mps 751 mmHg 58%
    13:00 +28°C° 0 mm 1 mps 751 mmHg 56%
    14:00 +29°C° 0 mm 1 mps 751 mmHg 54%
    15:00 +29°C° 0 mm 1 mps 751 mmHg 52%
    16:00 +29°C° 0.1 mm 1 mps 751 mmHg 56%
    17:00 +28°C° 0.1 mm 1 mps 751 mmHg 61%
    18:00 +27°C° 0.1 mm 2 mps 751 mmHg 66%
    19:00 +25°C° 0.2 mm 3 mps 751 mmHg 73%
    20:00 +23°C° 0.2 mm 4 mps 752 mmHg 80%
    21:00 +21°C° 0.2 mm 6 mps 752 mmHg 88%
    22:00 +20°C° 0 mm 6 mps 752 mmHg 88%
    23:00 +19°C° 0 mm 5 mps 752 mmHg 89%

    Day after tomorrow, 23 August, Friday

    Time Temperature Precipitation Wind Pressure Humidity
    00:00 +17°C° 0 mm 5 mps 753 mmHg 90%
    01:00 +16°C° 0 mm 5 mps 753 mmHg 89%
    02:00 +16°C° 0 mm 5 mps 753 mmHg 89%
    03:00 +16°C° 0 mm 5 mps 754 mmHg 88%
    04:00 +15°C° 0 mm 5 mps 754 mmHg 89%
    05:00 +15°C° 0 mm 5 mps 754 mmHg 89%
    06:00 +14°C° 0 mm 4 mps 754 mmHg 90%
    07:00 +15°C° 0 mm 5 mps 754 mmHg 85%
    08:00 +16°C° 0 mm 5 mps 755 mmHg 80%
    09:00 +17°C° 0 mm 5 mps 755 mmHg 75%
    10:00 +20°C° 0 mm 5 mps 755 mmHg 70%
    11:00 +21°C° 0 mm 5 mps 755 mmHg 66%
    12:00 +22°C° 0 mm 5 mps 755 mmHg 61%
    13:00 +22°C° 0 mm 5 mps 755 mmHg 60%
    14:00 +22°C° 0 mm 5 mps 755 mmHg 59%
    15:00 +23°C° 0 mm 5 mps 755 mmHg 57%
    16:00 +22°C° 0 mm 4 mps 755 mmHg 61%
    17:00 +22°C° 0 mm 4 mps 755 mmHg 65%
    18:00 +21°C° 0 mm 3 mps 755 mmHg 69%
    19:00 +20°C° 0 mm 3 mps 755 mmHg 72%
    20:00 +18°C° 0 mm 3 mps 755 mmHg 74%
    21:00 +17°C° 0 mm 3 mps 755 mmHg 77%
    22:00 +17°C° 0 mm 3 mps 755 mmHg 78%
    23:00 +16°C° 0 mm 3 mps 755 mmHg 78%

    24 August, Saturday

    Time Temperature Precipitation Wind Pressure Humidity
    00:00 +14°C° 0 mm 3 mps 755 mmHg 79%
    01:00 +14°C° 0 mm 3 mps 755 mmHg 79%
    02:00 +15°C° 0 mm 2 mps 755 mmHg 80%
    03:00 +14°C° 0 mm 2 mps 755 mmHg 81%
    04:00 +14°C° 0 mm 2 mps 756 mmHg 82%
    05:00 +14°C° 0 mm 2 mps 756 mmHg 83%
    06:00 +14°C° 0 mm 2 mps 756 mmHg 84%
    07:00 +15°C° 0 mm 2 mps 756 mmHg 79%
    08:00 +17°C° 0 mm 2 mps 756 mmHg 73%
    09:00 +19°C° 0 mm 2 mps 756 mmHg 68%
    10:00 +20°C° 0 mm 2 mps 756 mmHg 62%
    11:00 +21°C° 0 mm 2 mps 756 mmHg 57%
    12:00 +23°C° 0 mm 2 mps 756 mmHg 51%
    13:00 +24°C° 0 mm 2 mps 755 mmHg 49%
    14:00 +24°C° 0 mm 1 mps 755 mmHg 47%
    15:00 +25°C° 0 mm 1 mps 755 mmHg 45%
    16:00 +24°C° 0 mm 1 mps 755 mmHg 49%
    17:00 +24°C° 0 mm 1 mps 754 mmHg 52%
    18:00 +23°C° 0 mm 1 mps 754 mmHg 56%
    19:00 +22°C° 0 mm 1 mps 754 mmHg 59%
    20:00 +20°C° 0 mm 1 mps 754 mmHg 62%
    21:00 +19°C° 0 mm 1 mps 754 mmHg 65%
    22:00 +18°C° 0 mm 1 mps 754 mmHg 67%
    23:00 +18°C° 0 mm 1 mps 754 mmHg 69%

    25 August, Sunday

    Time Temperature Precipitation Wind Pressure Humidity
    00:00 +16°C° 0 mm 1 mps 754 mmHg 72%
    01:00 +16°C° 0 mm 1 mps 753 mmHg 72%
    02:00 +16°C° 0 mm 1 mps 753 mmHg 73%
    03:00 +15°C° 0 mm 1 mps 753 mmHg 74%
    04:00 +15°C° 0 mm 1 mps 753 mmHg 75%
    05:00 +15°C° 0 mm 2 mps 753 mmHg 76%
    06:00 +14°C° 0 mm 2 mps 753 mmHg 78%
    07:00 +16°C° 0 mm 2 mps 753 mmHg 74%
    08:00 +18°C° 0 mm 2 mps 753 mmHg 70%
    09:00 +20°C° 0 mm 2 mps 753 mmHg 66%
    10:00 +21°C° 0 mm 3 mps 752 mmHg 62%
    11:00 +22°C° 0 mm 3 mps 752 mmHg 58%
    12:00 +24°C° 0 mm 3 mps 752 mmHg 54%
    13:00 +24°C° 0 mm 3 mps 752 mmHg 54%
    14:00 +25°C° 0 mm 4 mps 752 mmHg 54%
    15:00 +25°C° 0 mm 4 mps 752 mmHg 53%
    16:00 +23°C° 0.1 mm 4 mps 752 mmHg 59%
    17:00 +22°C° 0.1 mm 3 mps 752 mmHg 64%
    18:00 +22°C° 0.1 mm 3 mps 752 mmHg 69%
    19:00 +20°C° 0 mm 3 mps 752 mmHg 76%
    20:00 +19°C° 0 mm 3 mps 752 mmHg 82%
    21:00 +17°C° 0 mm 3 mps 753 mmHg 88%
    22:00 +17°C° 0 mm 3 mps 753 mmHg 88%
    23:00 +16°C° 0 mm 3 mps 753 mmHg 87%

    26 August, Monday

    Time Temperature Precipitation Wind Pressure Humidity
    00:00 +14°C° 0 mm 3 mps 754 mmHg 87%
    01:00 +13°C° 0 mm 3 mps 754 mmHg 88%
    02:00 +13°C° 0 mm 3 mps 754 mmHg 90%
    03:00 +12°C° 0 mm 3 mps 755 mmHg 91%
    04:00 +12°C° 0 mm 3 mps 755 mmHg 93%
    05:00 +11°C° 0 mm 3 mps 755 mmHg 94%
    06:00 +11°C° 0 mm 3 mps 755 mmHg 95%
    07:00 +12°C° 0 mm 3 mps 756 mmHg 89%
    08:00 +13°C° 0 mm 3 mps 756 mmHg 83%
    09:00 +15°C° 0 mm 4 mps 756 mmHg 77%
    10:00 +17°C° 0 mm 4 mps 756 mmHg 69%
    11:00 +18°C° 0 mm 4 mps 757 mmHg 62%
    12:00 +19°C° 0 mm 4 mps 757 mmHg 54%
    13:00 +19°C° 0 mm 3 mps 757 mmHg 52%
    14:00 +20°C° 0 mm 3 mps 756 mmHg 50%
    15:00 +20°C° 0 mm 3 mps 756 mmHg 48%
    16:00 +20°C° 0 mm 2 mps 756 mmHg 52%
    17:00 +19°C° 0 mm 2 mps 756 mmHg 57%
    18:00 +19°C° 0 mm 2 mps 756 mmHg 61%
    19:00 +17°C° 0 mm 2 mps 756 mmHg 65%
    20:00 +16°C° 0 mm 2 mps 756 mmHg 69%
    21:00 +14°C° 0 mm 2 mps 756 mmHg 72%
    22:00 +14°C° 0 mm 2 mps 756 mmHg 74%
    23:00 +13°C° 0 mm 1 mps 756 mmHg 75%
    Show more